Theta_e
307 306 306 306 305 306 306 306 305 305 305 306 306 307 306 306 307 307 307 308 308 311 312 313 315 318 315 316 317 310 312 319 318 319 320 318 317 316 315 315 315 315 310 307 305 304 305
305 304 304 305 305 305 305 305 305 305 305 305 306 306 305 306 306 306 307 307 308 311 313 314 315 317 314 319 312 311 317 319 317 319 319 317 315 314 314 314 315 311 309 308 306 306 305
303 305 304 304 304 304 305 305 304 304 304 305 305 305 305 305 305 305 306 307 309 312 313 314 315 315 314 318 313 313 319 318 317 318 318 316 314 314 314 312 310 310 312 311 309 306 304
304 304 303 303 304 303 304 304 304 304 304 304 304 304 304 304 304 304 305 308 311 313 313 314 316 314 318 314 312 313 318 318 319 319 316 313 312 312 313 310 311 314 315 318 309 309 307
303 303 303 302 302 302 302 303 303 303 303 303 304 303 303 304 304 304 306 310 312 313 313 314 316 314 317 312 311 315 317 317 320 317 314 311 312 312 312 315 316 315 317 317 311 305 307
302 302 302 302 302 302 302 302 303 303 303 303 303 303 303 304 304 305 309 312 314 314 316 315 315 315 315 311 311 316 315 315 316 317 316 315 316 314 314 316 316 315 316 317 316 307 308
302 302 301 301 302 302 302 302 302 302 303 303 303 303 303 304 303 305 312 313 314 315 316 317 316 315 310 312 314 315 314 313 314 315 315 317 317 317 314 314 313 314 314 316 308 303 307
301 301 301 301 301 301 301 301 301 302 302 303 303 303 303 304 303 305 310 313 312 312 315 314 315 314 313 312 315 316 312 311 313 313 314 316 317 315 314 313 313 314 315 312 305 302 306
300 301 300 301 301 301 301 301 301 301 302 302 303 303 304 303 303 307 310 312 311 310 315 314 314 315 312 311 316 318 312 311 311 311 313 313 313 314 313 313 313 314 315 310 314 303 301
300 300 300 300 300 300 300 300 301 301 302 302 304 304 304 301 304 306 309 309 310 311 314 313 314 315 312 312 316 314 312 312 310 310 311 310 311 316 315 314 314 314 312 311 306 311 316
299 300 299 299 299 300 300 300 300 301 302 303 305 304 302 303 305 308 307 309 310 310 312 313 313 310 310 314 313 313 310 310 312 311 311 311 312 316 316 314 313 314 310 310 309 314 311
299 299 299 299 299 299 299 299 300 300 301 302 305 302 302 303 305 306 307 309 309 312 312 314 312 312 312 312 312 311 312 309 309 310 310 311 309 313 314 314 311 307 309 309 310 312 316
298 299 298 298 298 298 298 299 299 300 300 302 304 302 305 305 307 307 309 310 313 312 308 314 313 312 312 312 313 315 315 312 313 313 312 311 311 310 310 312 309 311 313 318 319 318 318
298 298 298 298 298 298 298 298 299 299 299 302 305 306 306 306 305 307 311 311 314 309 309 312 314 312 313 312 312 314 317 317 312 311 313 313 314 311 310 313 312 313 314 317 317 318 316
298 298 297 297 297 297 297 298 298 298 297 302 306 305 302 306 303 310 311 312 310 310 310 313 313 314 315 313 313 314 317 316 315 313 313 313 313 311 310 310 311 313 315 313 314 312 314
297 297 297 297 296 297 297 297 297 297 295 302 304 305 306 307 307 309 311 309 308 308 309 311 312 314 314 313 314 314 316 314 315 314 312 315 315 311 310 310 311 312 312 316 315 320 316
297 296 297 296 296 296 296 296 297 296 294 300 305 307 306 309 309 310 308 308 308 306 306 310 313 313 313 313 311 315 316 312 311 315 314 313 316 314 311 312 313 312 314 313 315 315 315
297 296 296 296 295 296 295 296 296 295 293 297 300 303 301 305 307 307 309 307 302 305 303 307 309 311 311 311 314 314 315 312 299 301 315 311 314 318 314 302 302 309 312 313 316 315 316
295 296 295 295 295 295 295 295 296 295 293 295 298 298 299 303 308 307 305 305 302 303 303 305 307 310 310 311 311 312 309 301 299 302 310 309 313 315 311 309 305 310 312 311 314 315 319
295 295 295 294 294 295 294 294 295 294 291 291 295 297 300 303 299 304 304 303 304 299 299 299 300 300 308 309 309 312 309 304 300 302 304 303 311 317 317 312 312 313 314 311 314 319 318
294 294 294 294 294 294 294 293 294 293 290 291 292 293 291 296 300 296 297 301 302 301 298 296 299 299 302 306 307 308 307 303 300 301 304 305 309 307 307 300 305 307 314 313 314 316 319
294 294 294 294 293 294 293 293 294 293 289 289 293 292 291 292 291 292 293 296 299 298 297 299 299 297 296 301 303 304 305 303 305 299 301 301 308 302 305 299 302 305 304 311 314 315 314
294 294 293 293 292 293 292 292 292 293 290 289 287 287 290 291 291 291 292 293 294 293 293 294 294 293 294 295 295 296 299 300 301 302 301 302 303 303 309 298 300 305 304 304 308 301 306
293 293 293 292 292 292 292 292 292 293 290 289 288 288 291 290 291 291 291 291 291 291 292 292 293 293 292 294 293 295 296 296 297 300 300 302 302 303 301 301 307 294 283 286 295 289 286
292 292 292 292 292 292 291 291 291 292 291 289 288 289 290 289 290 290 289 289 289 289 290 291 291 292 290 292 293 294 294 294 296 295 297 299 300 299 302 303 302 287 285 288 295 294 283
292 292 291 291 291 291 292 291 291 291 291 290 289 288 289 289 289 287 288 287 288 289 289 289 290 289 290 293 294 295 296 296 296 295 294 296 298 302 298 305 308 288 281 279 280 301 281
291 291 291 291 290 290 291 291 290 291 290 291 289 288 288 289 287 286 288 288 286 287 288 288 289 291 291 292 294 295 295 292 296 296 295 296 297 300 300 303 296 279 278 278 298 292 279
291 291 291 290 289 290 291 290 290 290 290 291 289 288 288 288 287 284 285 286 285 286 287 287 288 290 291 292 294 294 295 292 291 287 291 295 297 298 297 299 302 272 278 286 277 276 278
291 290 289 289 290 290 289 290 289 290 290 291 289 288 287 287 286 283 282 282 283 283 284 285 288 288 291 292 292 290 291 286 287 294 282 290 283 290 284 284 271 270 270 269 270 276 275
Wind_Speed
19 19 19 20 19 19 19 19 18 18 18 18 17 16 16 14 14 13 11 11 9 11 8 7 6 14 10 4 8 5 9 13 22 20 23 16 17 13 11 12 9 8 7 9 12 16 13
19 19 19 20 19 19 20 20 20 20 20 19 18 17 16 16 15 13 12 10 9 9 8 7 7 16 4 7 3 11 2 21 22 24 22 17 12 8 7 5 8 10 15 14 8 11 12
18 19 20 20 20 21 20 19 20 20 20 20 19 18 17 16 16 14 13 11 8 9 9 7 10 14 4 9 3 10 7 21 20 23 18 17 14 8 11 10 14 17 14 12 7 7 6
18 19 19 20 20 20 21 20 21 20 20 20 20 18 17 16 15 14 13 6 5 5 7 7 13 4 4 4 6 1 10 15 17 12 16 7 10 9 5 17 8 6 8 8 5 5 10
18 18 20 20 21 22 22 22 22 21 21 21 21 19 18 15 14 13 6 1 1 3 6 8 11 3 4 5 3 7 12 18 18 9 8 7 9 5 8 13 8 7 9 9 8 2 7
18 18 20 21 22 23 23 23 23 23 23 22 20 18 16 13 11 6 1 4 8 8 9 6 5 2 4 0 2 8 10 21 12 12 9 8 7 8 10 14 15 18 15 11 11 7 9
18 19 20 22 23 24 24 25 26 25 24 21 20 16 13 11 8 4 6 6 4 3 5 4 2 2 1 2 5 3 14 15 11 16 12 13 11 18 23 20 8 14 14 12 5 5 7
18 19 21 22 23 24 26 27 27 27 26 23 18 14 9 9 5 2 4 1 4 3 4 15 8 7 6 1 3 9 13 9 13 16 10 8 19 18 15 12 9 14 15 8 6 6 4
18 20 21 22 23 25 25 27 28 28 27 23 18 12 9 5 1 7 3 4 3 4 4 3 7 7 3 8 5 14 10 7 15 16 18 15 8 12 15 15 12 12 18 13 8 9 3
18 20 22 22 24 25 26 27 27 28 27 24 19 9 7 4 4 3 2 4 6 4 3 5 4 5 6 5 5 9 15 7 5 17 15 12 5 18 15 20 17 16 12 14 17 15 9
18 19 21 23 24 25 26 27 27 28 27 24 17 7 1 5 7 5 3 7 6 3 3 3 3 1 3 7 6 6 10 3 9 11 9 11 16 18 20 24 20 11 13 15 15 14 5
18 19 21 23 24 25 26 28 28 27 26 23 13 5 5 5 4 2 3 5 3 3 3 2 1 5 8 7 3 5 10 2 2 7 7 10 2 15 18 16 17 18 12 10 5 6 9
17 19 20 23 24 26 27 28 28 27 25 17 7 2 2 1 1 3 2 3 3 4 2 1 0 3 9 7 4 8 13 13 8 9 11 12 8 5 7 11 15 14 14 4 6 6 10
17 19 21 22 24 26 27 28 28 27 25 9 3 1 2 2 4 2 1 1 4 2 2 2 1 2 5 7 9 7 10 13 13 5 8 12 10 14 13 12 12 24 22 8 13 9 12
17 18 21 23 24 27 28 29 30 30 23 6 2 2 1 4 2 1 3 3 1 1 2 4 3 4 6 6 4 12 9 6 12 14 9 9 13 8 16 8 16 15 20 21 9 2 8
16 18 21 23 24 27 29 30 31 32 22 4 1 1 2 3 0 1 3 3 2 1 2 1 3 1 3 4 11 11 9 6 8 18 16 3 5 4 9 5 12 12 17 13 9 7 12
15 18 20 23 24 27 30 32 32 33 21 3 1 2 1 1 0 1 4 3 3 1 2 3 3 2 3 3 2 4 6 5 8 11 15 8 7 2 5 15 18 8 15 13 12 14 12
14 17 20 22 24 27 30 32 33 35 20 4 0 2 2 1 2 1 5 3 1 3 3 5 4 7 5 5 4 4 5 5 7 4 7 12 4 8 12 3 4 6 20 22 10 17 18
15 17 19 21 23 26 29 32 33 34 19 5 1 1 3 0 2 3 2 4 2 2 4 2 4 6 5 4 4 6 4 2 1 5 2 3 5 4 3 2 2 6 6 4 17 3 16
14 16 18 20 22 25 28 30 32 34 16 3 1 1 1 2 2 4 5 5 3 2 3 3 3 1 2 5 8 4 3 3 3 7 10 5 3 7 10 3 5 11 15 10 10 10 12
13 16 17 19 21 25 27 29 31 34 15 3 4 2 3 1 1 2 1 3 7 6 1 2 2 4 3 4 4 6 5 1 4 3 3 4 5 3 3 2 1 2 14 19 14 14 13
13 15 16 19 20 23 25 27 29 33 17 8 3 2 1 1 2 2 2 1 2 3 2 2 4 3 4 7 9 14 7 3 6 2 2 1 3 2 3 1 5 4 8 13 23 23 10
12 14 15 17 18 20 22 24 25 29 22 7 3 1 2 1 1 2 1 1 1 3 4 4 2 4 8 9 7 9 7 5 3 3 6 3 2 3 5 4 3 7 13 14 8 5 7
11 13 15 15 17 18 19 20 21 21 22 8 4 1 2 2 3 2 1 2 6 6 9 5 6 7 3 1 2 3 4 6 7 9 6 4 5 1 1 6 6 1 3 4 2 3 5
10 11 13 14 15 16 17 17 17 16 15 13 5 1 1 3 2 3 0 3 7 6 6 10 12 6 2 3 5 5 4 3 6 5 8 7 4 4 4 6 3 1 1 2 6 5 5
10 12 12 13 13 15 16 16 15 14 11 9 3 2 1 3 1 2 2 2 3 4 5 4 3 5 3 4 5 4 6 3 4 3 2 3 3 3 4 4 7 3 1 2 3 5 8
10 11 12 13 14 13 15 14 14 12 9 8 2 1 1 3 1 1 2 3 1 3 4 6 5 3 5 5 8 8 6 1 4 6 5 4 3 9 6 4 1 1 2 3 5 2 8
9 11 13 13 14 14 15 15 14 13 9 4 2 2 2 2 2 5 3 3 2 3 3 4 5 3 3 4 4 6 4 2 2 1 2 4 6 4 2 3 7 4 0 2 4 6 11
9 12 13 13 14 15 16 15 14 12 8 3 2 3 2 3 2 3 4 4 2 1 2 2 5 5 4 3 2 0 2 1 1 2 1 3 2 1 3 2 2 4 3 2 2 13 8
Wind_Direction
10 8 8 5 3 1 1 0 356 353 349 346 344 341 337 333 327 322 314 310 300 304 288 264 222 177 150 208 251 316 314 188 181 182 181 180 181 183 181 174 150 116 129 72 93 85 79
11 8 4 2 2 1 359 357 356 352 350 345 342 339 335 331 325 321 315 309 307 293 269 261 205 173 197 230 252 346 264 163 177 181 184 180 188 191 140 135 200 113 111 112 98 98 125
12 11 7 2 1 2 359 357 356 352 349 343 341 337 331 328 323 318 314 310 300 286 254 229 199 176 226 246 270 321 141 171 174 181 178 181 175 185 137 108 122 131 107 110 110 114 118
14 12 6 4 2 0 358 356 353 352 348 342 337 334 330 325 323 318 312 312 303 307 215 212 188 162 253 255 278 181 147 154 164 178 186 181 160 106 115 116 123 147 159 154 143 152 167
15 11 7 4 2 360 356 356 351 349 347 343 336 333 329 328 323 319 304 39 359 111 172 166 158 228 250 305 252 180 169 159 159 156 161 149 168 111 146 156 150 193 180 174 159 197 155
12 10 8 5 3 359 356 353 349 348 346 344 340 336 333 330 323 305 199 121 99 108 123 113 120 275 232 41 157 154 169 157 151 156 151 170 178 165 176 188 196 188 189 185 170 162 195
14 10 9 7 3 359 356 353 350 347 345 343 341 337 336 337 323 305 112 123 134 137 231 209 233 272 46 26 123 160 150 143 148 170 178 187 186 200 196 202 249 204 194 167 140 148 159
13 11 9 7 3 359 358 353 351 347 344 344 343 345 347 336 309 221 137 82 39 333 243 237 241 260 263 204 134 162 174 156 172 181 160 176 214 209 201 190 169 185 174 158 119 159 213
13 9 7 6 1 359 358 353 351 349 345 345 340 345 341 328 206 160 159 97 39 11 249 209 210 231 216 187 185 181 192 162 187 183 194 200 213 175 182 189 176 193 196 178 170 150 51
15 9 4 3 3 359 355 355 353 349 349 345 341 349 6 86 117 142 213 312 323 319 272 164 184 236 179 208 217 172 185 167 181 200 197 224 187 184 192 200 200 206 218 173 145 167 210
16 9 4 3 2 360 356 355 353 352 351 347 348 354 47 89 130 157 297 309 272 235 257 114 158 124 152 197 128 189 175 189 182 173 184 201 186 190 200 204 198 218 155 164 175 203 198
13 10 6 2 1 1 357 355 355 354 351 350 356 16 121 96 93 138 288 275 224 229 246 105 130 162 166 205 142 133 183 93 107 170 237 220 284 192 203 213 194 135 110 100 141 204 236
12 11 10 4 0 0 358 356 355 353 350 353 9 60 40 84 127 310 316 195 205 228 15 84 139 191 199 189 156 178 187 197 188 187 205 201 193 187 159 138 153 166 164 160 198 208 235
11 11 10 6 2 357 358 356 354 353 350 349 356 54 289 285 311 313 219 210 240 41 307 355 274 109 222 177 206 195 200 207 220 236 192 196 209 187 187 192 182 196 192 194 214 211 213
10 10 8 7 3 357 356 356 354 353 349 335 305 282 278 313 316 141 234 215 271 238 320 326 262 213 193 229 250 196 206 219 217 221 225 209 227 192 179 164 163 196 215 214 250 351 242
9 8 6 8 3 358 355 355 356 353 350 340 260 288 339 347 90 263 221 281 273 264 293 264 291 219 280 258 190 194 180 207 220 224 222 232 251 182 177 175 207 211 189 204 212 207 228
8 8 7 6 4 0 356 356 357 355 355 2 179 207 358 39 21 166 232 245 272 277 284 252 290 276 252 234 277 225 207 198 201 214 207 195 211 155 170 206 193 182 199 208 219 228 236
11 7 7 5 5 3 359 357 358 357 2 18 29 216 340 62 185 229 243 267 346 229 231 255 252 230 242 196 263 236 236 262 353 317 202 191 187 210 203 58 351 257 213 208 215 214 231
10 7 8 7 5 4 2 359 359 359 3 353 25 344 351 105 228 230 299 283 275 266 252 280 249 236 210 225 266 217 209 138 103 21 202 186 207 169 173 267 238 217 196 251 229 257 221
9 7 8 7 6 5 5 1 359 0 5 32 304 229 66 63 16 264 286 285 255 204 256 261 277 262 267 248 229 272 258 191 203 222 190 349 263 231 233 222 144 198 204 203 206 216 221
10 8 8 7 7 6 7 4 2 3 9 51 13 52 10 314 121 351 302 287 276 293 248 259 205 243 258 263 268 243 262 290 207 277 206 201 240 285 300 3 152 272 200 196 204 214 213
9 7 8 10 9 8 8 8 5 5 13 67 16 348 34 329 299 288 219 216 278 303 278 246 251 314 286 249 257 296 301 257 260 137 204 284 219 168 254 215 273 229 233 221 211 222 243
15 11 7 9 9 9 10 10 9 11 26 60 37 45 296 84 231 243 232 291 183 347 255 271 312 307 275 280 290 286 279 279 287 238 196 200 212 183 249 144 144 273 222 201 197 190 230
9 9 7 7 6 9 9 11 12 18 27 54 35 327 304 258 255 253 311 304 285 290 269 283 291 282 343 43 290 245 243 257 247 230 220 207 190 198 139 167 217 47 2 344 167 104 113
5 9 2 4 2 5 6 6 8 11 20 24 21 8 2 277 282 253 310 299 293 282 264 268 269 275 352 270 266 263 216 235 219 222 227 225 168 176 200 215 334 158 180 189 207 182 160
2 5 0 1 355 357 1 1 359 358 5 359 359 31 279 292 188 28 321 336 311 310 293 259 287 291 234 246 228 233 230 211 209 198 247 208 244 235 172 228 217 76 91 352 310 243 158
357 2 357 354 353 351 352 355 355 350 350 348 303 326 253 273 161 194 296 307 279 272 268 295 338 291 209 228 236 234 239 231 218 189 170 176 181 214 205 224 235 73 343 315 190 109 136
353 356 356 354 349 347 348 348 344 344 341 328 272 178 270 269 225 206 203 220 219 228 276 350 296 195 232 236 244 231 245 173 230 106 178 196 179 187 148 211 235 11 105 220 103 101 121
359 358 354 353 345 344 344 340 342 337 335 289 207 224 244 236 344 225 227 232 203 243 289 264 297 299 342 288 234 293 217 219 196 213 124 218 349 81 358 33 23 18 29 82 310 126 105